This is the latest recevied weather packets stored in our database for station/object K7NDG. If no packets are shown the sender has not sent any weather packets the latest 10 day(s).
| Time | Temp. | Humidity | Pressure | Rain* | Wind** | Luminosity | Snow |
|---|---|---|---|---|---|---|---|
| 1777243878 | 16.11° C | 64% | 1011.2 hPa | 0 mm | - | 641 W/m² | - |
| 1777243574 | 16.11° C | 63% | 1011.3 hPa | 0 mm | - | 651 W/m² | - |
| 1777243269 | 16.67° C | 61% | 1011.1 hPa | 0 mm | - | 661 W/m² | - |
| 1777242965 | 16.67° C | 60% | 1011.2 hPa | 0 mm | - | 663 W/m² | - |
| 1777242663 | 17.22° C | 61% | 1011 hPa | 0 mm | - | 661 W/m² | - |
| 1777242358 | 17.22° C | 64% | 1011.2 hPa | 0 mm | - | 672 W/m² | - |
| 1777242056 | 16.67° C | 63% | 1011 hPa | 0 mm | - | 678 W/m² | - |
| 1777241753 | 17.22° C | 62% | 1011 hPa | 0 mm | - | 580 W/m² | - |
| 1777241450 | 17.78° C | 62% | 1011 hPa | 0 mm | - | 657 W/m² | - |
| 1777241148 | 17.78° C | 63% | 1011 hPa | 0 mm | - | 634 W/m² | - |
| 1777240845 | 17.78° C | 62% | 1010.8 hPa | 0 mm | - | 674 W/m² | - |
| 1777240544 | 17.78° C | 61% | 1010.9 hPa | 0 mm | - | 667 W/m² | - |
| 1777240240 | 17.78° C | 61% | 1010.8 hPa | 0 mm | - | 667 W/m² | - |
| 1777239938 | 17.78° C | 60% | 1010.6 hPa | 0 mm | - | 661 W/m² | - |
| 1777239635 | 17.78° C | 59% | 1010.9 hPa | 0 mm | - | 646 W/m² | - |
| 1777239332 | 18.33° C | 56% | 1010.7 hPa | 0 mm | - | 637 W/m² | - |
| 1777239028 | 18.33° C | 57% | 1011 hPa | 0 mm | - | 646 W/m² | - |
| 1777238726 | 18.33° C | 58% | 1010.7 hPa | 0 mm | - | 631 W/m² | - |
| 1777238422 | 18.33° C | 59% | 1010.8 hPa | 0 mm | - | 620 W/m² | - |
| 1777238119 | 17.78° C | 59% | 1010.7 hPa | 0 mm | - | 612 W/m² | - |
| 1777237816 | 17.78° C | 60% | 1010.7 hPa | 0 mm | - | 625 W/m² | - |
| 1777237512 | 18.33° C | 59% | 1010.4 hPa | 0 mm | - | 623 W/m² | - |
| 1777237210 | 18.33° C | 58% | 1010.4 hPa | 0 mm | - | 598 W/m² | - |
| 1777236907 | 18.33° C | 58% | 1010.7 hPa | 0 mm | - | 575 W/m² | - |
| 1777236604 | 18.89° C | 57% | 1010.5 hPa | 0 mm | - | 235 W/m² | - |
* Rain latest hour (hover to see other rain measurements)
** Current wind speed in m/s (hover to see current wind gust speed)